Location: ???????
(55.4362°N, 38.1183°E)
Time: 01:31:42
(UTC+00:00)

Cosmos 1932 - Pass Details

Date: 30 October 2021
Orbit: 943 x 987 km, 65.0° (Epoch: 01 December)

Event Time Altitude Azimuth Distance (km) Brightness Sun altitude
Rises 16:19:02 0° 310° (NW) 3,621 8.4 -21.1°
Reaches altitude 10° 16:22:16 10° 294° (WNW) 2,676 7.8 -21.5°
Maximum altitude 16:26:31 19° 251° (WSW) 2,075 6.9 -22.1°
Drops below altitude 10° 16:30:46 10° 207° (SSW) 2,680 7.0 -22.7°
Sets 16:34:02 0° 191° (S) 3,630 7.5 -23.2°
